User: anonymous   Login
Location: Chiroubles
(46.1812°N, 4.6660°E)
Time: 01:57:39
(UTC+00:00)
Language:

Geosat - Orbit

View from above orbital plane
View from above orbital plane
View from above satellite
View from above satellite

Ground track
Ground track

The orbit data is extracted from the following two-line orbital elements,

1 15595U 85021A   20302.46827554 -.00000059  00000-0  25146-4 0  9996
2 15595 108.0401 125.2679 0001586 290.8237  69.2734 14.38171067867093
Epoch (UTC): 28 October 2020 11:14:19
Eccentricity: 0.0001586
inclination: 108.0401°
perigee height: 763 km
apogee height: 765 km
right ascension of ascending node: 125.2679°
argument of perigee: 290.8237°
revolutions per day: 14.38171067
mean anomaly at epoch: 69.2734°
orbit number at epoch: 86709

The dashed part of the orbit path shows where the satellite is in the earth's shadow,  

DLR